Toronto Pearson, Ontario

12:02 AM EDT on September 20, 2019 (GMT -0400)
Toronto-Pearson International

Weather History for CYYZ - May, 2019

Change the Weather History Date:

Saturday, May 25, 2019

  Actual Average Record
Temperature  
Mean Temperature 60 °F -  
Max Temperature 68 °F 72 °F 88 °F (2012)
Min Temperature 51 °F 50 °F 39 °F (2002)
Degree Days  
Heating Degree Days 6    
Growing Degree Days 10 (Base 50)    
Moisture  
Dew Point 57 °F    
Average Humidity 91    
Maximum Humidity 100    
Minimum Humidity 75    
Precipitation  
Precipitation 0.71 in 0.09 in - ()
Sea Level Pressure  
Sea Level Pressure 29.94 in    
Wind  
Wind Speed 8 mph ()    
Max Wind Speed 20 mph    
Max Gust Speed 32 mph    
Visibility 8.9 miles    
Events Rain , Thunderstorm    
Averages and records for this station are not official NWS values.
T = Trace of Precipitation, MM = Missing Value Source: Averaged Metar Reports

Daily Weather History Graph

Daily Weather History Graph

Search for Another Location

Airport or City:

Astronomy

May. 25, 2019 Rise Set
Actual Time 5:44 AM EDT 8:47 PM EDT
Civil Twilight 5:10 AM EDT 9:21 PM EDT
Nautical Twilight 4:26 AM EDT 10:05 PM EDT
Astronomical Twilight 3:34 AM EDT 10:57 PM EDT
Moon 1:44 AM EDT (5/25) 11:44 AM EDT (5/25)
Length of Visible Light 16h 11m
Length of Day
15h 02m
Waning Gibbous, 60% of the Moon is Illuminated
May 25
Waning Gibbous
May 26
Last Quarter
Jun 3
New
Jun 10
First Quarter
Jun 17
Full

Hourly Weather History & Observations

Time (EDT) Temp. Dew Point Humidity Pressure Visibility Wind Dir Wind Speed Gust Speed Precip Events Conditions
12:00 AM 59.0 °F 51.8 °F 77% 30.11 in 15.0 mi SSE 6.9 mph - N/A   Partly Cloudy
1:00 AM 57.2 °F 51.8 °F 82% 30.10 in 15.0 mi SE 4.6 mph - N/A   Partly Cloudy
2:00 AM 55 °F 51 °F 82% 30.10 in 15 mi SSE 12.7 mph - -   Clear
2:00 AM 55.4 °F 51.8 °F 88% 30.10 in 15.0 mi SSE 10.4 mph - N/A   Partly Cloudy
3:00 AM 53.6 °F 50.0 °F 88% 30.07 in 15.0 mi East 8.1 mph - N/A   Partly Cloudy
4:00 AM 51.8 °F 50.0 °F 94% 30.08 in 15.0 mi ESE 4.6 mph - N/A   Scattered Clouds
5:00 AM 52 °F 49 °F 87% 30.06 in 15 mi ESE 4.6 mph - -  
5:00 AM 51.8 °F 50.0 °F 94% 30.06 in 15.0 mi SE 4.6 mph - N/A   Mostly Cloudy
6:00 AM 51.8 °F 48.2 °F 88% 30.06 in 15.0 mi SSE 5.8 mph - N/A   Mostly Cloudy
7:00 AM 53.6 °F 50.0 °F 88% 30.05 in 15.0 mi Variable 4.6 mph - N/A   Overcast
7:11 AM 53.6 °F 50.0 °F 88% 30.05 in 15.0 mi Variable 4.6 mph - N/A Rain Light Rain
8:00 AM 53 °F 51 °F 90% 30.05 in 6 mi South 6.9 mph - - Rain Light Rain
8:00 AM 53.6 °F 51.8 °F 94% 30.05 in 6.0 mi Variable 9.2 mph - N/A Rain Light Rain
8:07 AM 53.6 °F 51.8 °F 94% 30.03 in 4.0 mi SSE 11.5 mph - N/A Rain Heavy Rain Showers
8:47 AM 53.6 °F 51.8 °F 94% 30.05 in 5.0 mi SSE 11.5 mph - N/A Rain Rain
9:00 AM 53.6 °F 51.8 °F 94% 30.04 in 4.0 mi SE 6.9 mph - N/A Rain Heavy Rain
9:19 AM 51.8 °F 51.8 °F 100% 30.03 in 3.0 mi SE 6.9 mph - N/A Rain Light Rain
10:00 AM 53.6 °F 51.8 °F 94% 30.00 in 3.0 mi SE 5.8 mph - N/A Rain Light Rain
10:18 AM 53.6 °F 51.8 °F 94% 29.99 in 4.0 mi SE 5.8 mph - N/A Rain Light Rain
10:37 AM 53.6 °F 51.8 °F 94% 30.00 in 2.5 mi SSE 6.9 mph - N/A Rain Light Rain
11:00 AM 54 °F 53 °F 95% 29.98 in 2 mi East 6.9 mph - -   Overcast
11:00 AM 53.6 °F 53.6 °F 100% 29.98 in 2.5 mi East 6.9 mph - N/A Rain Light Rain
11:29 AM 55.4 °F 53.6 °F 94% 29.97 in 4.0 mi ESE 6.9 mph 17.3 mph N/A   Overcast
11:49 AM 55.4 °F 55.4 °F 100% 29.96 in 4.0 mi ESE 6.9 mph - N/A Thunderstorm Overcast
12:00 PM 55.4 °F 55.4 °F 100% 29.97 in 5.0 mi ESE 4.6 mph - N/A Rain , Thunderstorm Light Thunderstorms and Rain
12:21 PM 57.2 °F 55.4 °F 94% 29.96 in 5.0 mi ESE 5.8 mph - N/A   Overcast
1:00 PM 60.8 °F 59.0 °F 94% 29.93 in 6.0 mi ESE 8.1 mph 17.3 mph N/A   Mostly Cloudy
1:35 PM 62.6 °F 59.0 °F 88% 29.90 in 15.0 mi ESE 10.4 mph - N/A   Scattered Clouds
2:00 PM 64 °F 58 °F 75% 29.89 in 15 mi ESE 12.7 mph - -   Partly Cloudy
2:00 PM 64.4 °F 59.0 °F 83% 29.88 in 15.0 mi ESE 12.7 mph - N/A   Mostly Cloudy
2:42 PM 64.4 °F 57.2 °F 77% 29.87 in 15.0 mi SSE 12.7 mph 18.4 mph N/A Thunderstorm Thunderstorm
2:46 PM 64.4 °F 57.2 °F 77% 29.87 in 15.0 mi SSE 13.8 mph - N/A Rain , Thunderstorm Light Thunderstorms and Rain
3:00 PM 64.4 °F 59.0 °F 83% 29.87 in 15.0 mi South 13.8 mph - N/A Rain , Thunderstorm Light Thunderstorms and Rain
3:17 PM 64.4 °F 60.8 °F 88% 29.86 in 15.0 mi SSE 15.0 mph - N/A   Mostly Cloudy
4:00 PM 66.2 °F 59.0 °F 78% 29.83 in 15.0 mi SE 6.9 mph 17.3 mph N/A   Overcast
5:00 PM 68 °F 62 °F 76% 29.81 in 15 mi East 2.3 mph - -   Overcast
5:00 PM 68.0 °F 62.6 °F 83% 29.81 in 15.0 mi Variable 2.3 mph - N/A   Overcast
5:20 PM 68.0 °F 62.6 °F 83% 29.83 in 15.0 mi NE 11.5 mph - N/A Thunderstorm Thunderstorm
5:25 PM 68.0 °F 62.6 °F 83% 29.85 in 1.0 mi NNW 19.6 mph 32.2 mph N/A Rain , Thunderstorm Heavy Thunderstorms and Rain
5:31 PM 66.2 °F 62.6 °F 88% 29.84 in 0.8 mi North 12.7 mph 32.2 mph N/A Rain , Thunderstorm Heavy Thunderstorms and Rain
5:38 PM 66.2 °F 62.6 °F 88% 29.87 in 0.5 mi WNW 12.7 mph 19.6 mph N/A Rain , Thunderstorm Heavy Thunderstorms and Rain
5:43 PM 64.4 °F 62.6 °F 94% 29.85 in 2.0 mi West 10.4 mph 21.9 mph N/A Rain , Thunderstorm Heavy Thunderstorms and Rain
6:00 PM 66.2 °F 64.4 °F 94% 29.82 in 4.0 mi West 6.9 mph - N/A Rain , Thunderstorm Heavy Thunderstorms and Rain
6:05 PM 66.2 °F 64.4 °F 94% 29.82 in 6.0 mi SSW 5.8 mph - N/A Rain , Thunderstorm Light Thunderstorms and Rain
6:20 PM 66.2 °F 64.4 °F 94% 29.82 in 15.0 mi South 8.1 mph - N/A   Mostly Cloudy
7:32 PM 62.6 °F 62.6 °F 100% 29.85 in 8.0 mi South 17.3 mph - N/A   Mostly Cloudy
7:54 PM 60.8 °F 60.8 °F 100% 29.86 in 4.0 mi SSE 16.1 mph 23.0 mph N/A   Overcast
8:00 PM 61 °F 60 °F 96% 29.86 in 2 mi SSE 16.1 mph - -   Mist
8:00 PM 60.8 °F 60.8 °F 100% 29.86 in 2.0 mi SSE 17.3 mph - N/A   Overcast
8:03 PM 60.8 °F 60.8 °F 100% 29.86 in 1.0 mi SSE 16.1 mph - N/A   Mist
8:14 PM 60.8 °F 60.8 °F 100% 29.86 in 2.0 mi South 16.1 mph 21.9 mph N/A   Mostly Cloudy
8:23 PM 60.8 °F 60.8 °F 100% 29.85 in 4.0 mi South 15.0 mph - N/A   Mostly Cloudy
9:00 PM 62.6 °F 62.6 °F 100% 29.84 in 10.0 mi South 12.7 mph - N/A   Scattered Clouds
10:00 PM 64.4 °F 64.4 °F 100% 29.85 in 15.0 mi South 9.2 mph - N/A   Clear
11:00 PM 66 °F 65 °F 95% 29.85 in 15 mi SW 5.8 mph - -